When you browse on this site, cookies collect data to enhance your experience and personalize the content and advertising you see.
Visit our Privacy Policy to learn more. By continuing to use the site, you agree to this use of cookies and data.
  • In Slovakia
  • List of Countries
  • For 7 days
  • Water Temperature
  • Weather Map
  • Weather Widgets
  • user-avatar
    Login

    Hourly Weather Wiktoria

    Today, 29 January, Wednesday

    Time Temperature Precipitation Wind Pressure Humidity
    00:00 +21°C° 0 mm 2 mps 750 mmHg 51%
    01:00 +20°C° 0 mm 2 mps 749 mmHg 54%
    02:00 +19°C° 0 mm 2 mps 750 mmHg 57%
    03:00 +19°C° 0 mm 2 mps 750 mmHg 60%
    04:00 +18°C° 0 mm 2 mps 749 mmHg 66%
    05:00 +19°C° 0 mm 2 mps 750 mmHg 64%
    06:00 +19°C° 0 mm 2 mps 750 mmHg 63%
    07:00 +20°C° 0 mm 2 mps 750 mmHg 61%
    08:00 +23°C° 0 mm 2 mps 750 mmHg 51%
    09:00 +26°C° 0 mm 3 mps 750 mmHg 40%
    10:00 +29°C° 0 mm 3 mps 751 mmHg 29%
    11:00 +31°C° 0 mm 3 mps 750 mmHg 26%
    12:00 +34°C° 0 mm 3 mps 750 mmHg 22%
    13:00 +36°C° 0 mm 3 mps 749 mmHg 19%
    14:00 +36°C° 0 mm 4 mps 749 mmHg 17%
    15:00 +37°C° 0 mm 4 mps 748 mmHg 16%
    16:00 +38°C° 0 mm 3 mps 748 mmHg 14%
    17:00 +36°C° 0 mm 3 mps 748 mmHg 16%
    18:00 +34°C° 0 mm 3 mps 748 mmHg 19%
    19:00 +31°C° 0 mm 3 mps 748 mmHg 22%
    20:00 +29°C° 0 mm 3 mps 748 mmHg 24%
    21:00 +28°C° 0 mm 3 mps 748 mmHg 26%
    22:00 +26°C° 0 mm 2 mps 748 mmHg 26%
    23:00 +25°C° 0 mm 2 mps 748 mmHg 29%

    Tomorrow, 30 January, Thursday

    Time Temperature Precipitation Wind Pressure Humidity
    00:00 +24°C° 0 mm 2 mps 748 mmHg 32%
    01:00 +24°C° 0 mm 2 mps 748 mmHg 35%
    02:00 +23°C° 0 mm 2 mps 748 mmHg 38%
    03:00 +23°C° 0 mm 2 mps 748 mmHg 41%
    04:00 +22°C° 0 mm 1 mps 748 mmHg 45%
    05:00 +23°C° 0 mm 2 mps 748 mmHg 46%
    06:00 +22°C° 0 mm 3 mps 748 mmHg 47%
    07:00 +23°C° 0 mm 4 mps 748 mmHg 48%
    08:00 +27°C° 0 mm 4 mps 748 mmHg 44%
    09:00 +29°C° 0 mm 4 mps 748 mmHg 39%
    10:00 +33°C° 0 mm 4 mps 748 mmHg 34%
    11:00 +35°C° 0 mm 3 mps 748 mmHg 28%
    12:00 +37°C° 0 mm 3 mps 747 mmHg 22%
    13:00 +39°C° 0 mm 2 mps 747 mmHg 16%
    14:00 +40°C° 0 mm 2 mps 746 mmHg 14%
    15:00 +40°C° 0 mm 2 mps 746 mmHg 13%
    16:00 +41°C° 0 mm 1 mps 746 mmHg 12%
    17:00 +39°C° 0 mm 2 mps 746 mmHg 14%
    18:00 +38°C° 0 mm 2 mps 746 mmHg 16%
    19:00 +36°C° 0 mm 3 mps 745 mmHg 19%
    20:00 +34°C° 0 mm 3 mps 746 mmHg 19%
    21:00 +33°C° 0 mm 3 mps 746 mmHg 20%
    22:00 +31°C° 0 mm 3 mps 747 mmHg 20%
    23:00 +30°C° 0 mm 3 mps 746 mmHg 21%

    Day after tomorrow, 31 January, Friday

    Time Temperature Precipitation Wind Pressure Humidity
    00:00 +29°C° 0 mm 3 mps 746 mmHg 22%
    01:00 +28°C° 0 mm 3 mps 746 mmHg 23%
    02:00 +28°C° 0 mm 3 mps 745 mmHg 25%
    03:00 +27°C° 0 mm 3 mps 745 mmHg 26%
    04:00 +27°C° 0 mm 3 mps 745 mmHg 27%
    05:00 +27°C° 0 mm 3 mps 745 mmHg 28%
    06:00 +28°C° 0 mm 4 mps 746 mmHg 28%
    07:00 +29°C° 0 mm 4 mps 746 mmHg 29%
    08:00 +33°C° 0 mm 5 mps 746 mmHg 25%
    09:00 +36°C° 0 mm 5 mps 746 mmHg 22%
    10:00 +40°C° 0 mm 6 mps 746 mmHg 19%
    11:00 +42°C° 0 mm 6 mps 745 mmHg 18%
    12:00 +45°C° 0 mm 6 mps 745 mmHg 18%
    13:00 +47°C° 0 mm 6 mps 744 mmHg 18%
    14:00 +47°C° 0 mm 6 mps 744 mmHg 19%
    15:00 +46°C° 0 mm 6 mps 744 mmHg 20%
    16:00 +45°C° 0 mm 7 mps 743 mmHg 21%
    17:00 +44°C° 0 mm 6 mps 743 mmHg 22%
    18:00 +42°C° 0 mm 5 mps 743 mmHg 23%
    19:00 +41°C° 0 mm 4 mps 743 mmHg 24%
    20:00 +40°C° 0 mm 4 mps 744 mmHg 27%
    21:00 +37°C° 0 mm 3 mps 744 mmHg 29%
    22:00 +36°C° 0 mm 3 mps 744 mmHg 32%
    23:00 +36°C° 0 mm 3 mps 744 mmHg 32%

    1 February, Saturday

    Time Temperature Precipitation Wind Pressure Humidity
    00:00 +35°C° 0 mm 3 mps 744 mmHg 33%
    01:00 +35°C° 0 mm 4 mps 744 mmHg 34%
    02:00 +34°C° 0 mm 3 mps 744 mmHg 37%
    03:00 +33°C° 0 mm 3 mps 744 mmHg 40%
    04:00 +33°C° 0 mm 3 mps 744 mmHg 43%
    05:00 +31°C° 0 mm 3 mps 744 mmHg 45%
    06:00 +31°C° 0 mm 3 mps 745 mmHg 48%
    07:00 +30°C° 0 mm 3 mps 745 mmHg 50%
    08:00 +33°C° 0 mm 3 mps 745 mmHg 47%
    09:00 +35°C° 0 mm 2 mps 745 mmHg 44%
    10:00 +37°C° 0 mm 2 mps 745 mmHg 40%
    11:00 +40°C° 0 mm 4 mps 745 mmHg 36%
    12:00 +41°C° 0 mm 5 mps 744 mmHg 32%
    13:00 +44°C° 0 mm 7 mps 743 mmHg 28%
    14:00 +44°C° 0 mm 7 mps 743 mmHg 26%
    15:00 +45°C° 0 mm 8 mps 742 mmHg 23%
    16:00 +46°C° 0 mm 8 mps 741 mmHg 21%
    17:00 +42°C° 0 mm 9 mps 742 mmHg 33%
    18:00 +38°C° 0 mm 9 mps 742 mmHg 46%
    19:00 +33°C° 0 mm 9 mps 743 mmHg 58%
    20:00 +32°C° 0.1 mm 8 mps 743 mmHg 63%
    21:00 +29°C° 0.1 mm 6 mps 744 mmHg 67%
    22:00 +27°C° 0.1 mm 5 mps 744 mmHg 71%
    23:00 +27°C° 0 mm 4 mps 744 mmHg 72%

    2 February, Sunday

    Time Temperature Precipitation Wind Pressure Humidity
    00:00 +27°C° 0 mm 2 mps 743 mmHg 72%
    01:00 +26°C° 0 mm 1 mps 743 mmHg 72%
    02:00 +26°C° 0.1 mm 2 mps 743 mmHg 75%
    03:00 +25°C° 0.1 mm 3 mps 743 mmHg 78%
    04:00 +25°C° 0.1 mm 3 mps 743 mmHg 81%
    05:00 +22°C° 0.9 mm 4 mps 744 mmHg 83%
    06:00 +21°C° 0.9 mm 4 mps 745 mmHg 85%
    07:00 +19°C° 0.9 mm 4 mps 745 mmHg 87%
    08:00 +20°C° 0.2 mm 4 mps 746 mmHg 81%
    09:00 +20°C° 0.2 mm 5 mps 746 mmHg 75%
    10:00 +20°C° 0.2 mm 5 mps 746 mmHg 69%
    11:00 +22°C° 0 mm 5 mps 746 mmHg 56%
    12:00 +26°C° 0 mm 5 mps 746 mmHg 44%
    13:00 +28°C° 0 mm 5 mps 745 mmHg 31%
    14:00 +28°C° 0 mm 5 mps 745 mmHg 30%
    15:00 +28°C° 0 mm 5 mps 744 mmHg 29%
    16:00 +29°C° 0 mm 5 mps 744 mmHg 28%
    17:00 +27°C° 0 mm 5 mps 744 mmHg 33%
    18:00 +26°C° 0 mm 5 mps 744 mmHg 37%
    19:00 +25°C° 0 mm 5 mps 744 mmHg 41%
    20:00 +22°C° 0 mm 4 mps 744 mmHg 45%
    21:00 +21°C° 0 mm 4 mps 745 mmHg 50%
    22:00 +19°C° 0 mm 3 mps 745 mmHg 55%
    23:00 +18°C° 0 mm 3 mps 745 mmHg 58%

    3 February, Monday

    Time Temperature Precipitation Wind Pressure Humidity
    00:00 +18°C° 0 mm 4 mps 745 mmHg 61%
    01:00 +17°C° 0 mm 4 mps 745 mmHg 64%
    02:00 +15°C° 0 mm 4 mps 745 mmHg 67%
    03:00 +14°C° 0 mm 3 mps 745 mmHg 69%
    04:00 +14°C° 0 mm 3 mps 745 mmHg 71%
    05:00 +14°C° 0 mm 4 mps 745 mmHg 68%
    06:00 +14°C° 0 mm 5 mps 746 mmHg 66%
    07:00 +14°C° 0 mm 5 mps 746 mmHg 63%
    08:00 +15°C° 0 mm 5 mps 746 mmHg 57%
    09:00 +17°C° 0 mm 6 mps 746 mmHg 50%
    10:00 +20°C° 0 mm 6 mps 747 mmHg 43%
    11:00 +21°C° 0 mm 6 mps 746 mmHg 41%
    12:00 +22°C° 0 mm 6 mps 746 mmHg 39%
    13:00 +23°C° 0 mm 7 mps 746 mmHg 37%
    14:00 +23°C° 0 mm 7 mps 746 mmHg 38%
    15:00 +22°C° 0 mm 7 mps 746 mmHg 39%
    16:00 +22°C° 0 mm 8 mps 745 mmHg 40%
    17:00 +20°C° 0 mm 8 mps 746 mmHg 43%
    18:00 +17°C° 0 mm 8 mps 746 mmHg 46%
    19:00 +16°C° 0 mm 8 mps 747 mmHg 49%
    20:00 +13°C° 0 mm 8 mps 748 mmHg 51%
    21:00 +12°C° 0 mm 7 mps 749 mmHg 53%
    22:00 +11°C° 0 mm 7 mps 750 mmHg 56%
    23:00 +11°C° 0 mm 6 mps 750 mmHg 57%
    Show more